Vertical_Velocity
-1 -2 -1 -2 -1 -1 -2 0 -1 -0 -2 -1 -1 -0 -1 -1 -2 2 -5 -1 -4 -2 -1 -2 -0 -1 -1 -3 -1 -3 2 0 1 0 2 -0 2 -1 -3 1 -1 -2 -2 -0 -2
0 -0 -0 -1 -1 -1 -0 0 -0 -1 -1 -1 -0 -1 -1 -1 -0 -2 -2 -3 -1 -2 -2 1 1 0 -1 -1 -2 0 0 1 1 0 0 -0 1 1 2 0 0 -0 -1 -0 1
-0 0 -0 -0 1 0 1 0 0 -1 -0 -0 -1 -1 0 0 0 -2 -1 -2 -1 -1 1 1 -1 -1 -3 -1 -1 -0 1 0 0 -0 -1 -0 0 -1 1 -1 -2 -1 1 -1 -1
-0 0 0 -1 -1 -0 0 -0 -2 -1 -0 -1 -1 0 -0 -0 6 -2 -2 -0 -1 -0 1 1 -0 -1 -2 -1 -1 -1 -0 -0 -0 -0 0 0 -1 -0 1 -2 -1 1 -0 -0 1
1 1 1 0 -1 -0 -0 -1 0 -1 -1 1 -0 -1 -1 -1 -1 -1 -1 -1 -1 2 1 -1 -1 -1 -1 -1 -0 -2 0 -1 -1 -0 -1 -0 -1 -2 -4 1 -1 -1 0 1 1
-2 -2 -1 -0 0 0 -0 -1 -1 -0 1 0 1 1 -1 -2 -0 -1 -1 -0 1 1 -1 -2 -1 -0 -3 -0 0 -0 -1 -0 -0 -0 -0 2 -1 1 0 -1 -1 -2 0 0 -1
-0 -0 -1 -1 -1 -0 1 -1 0 0 0 0 0 1 -2 0 -1 -0 1 -0 -0 -1 -2 -2 -1 1 -1 1 -1 -0 2 1 1 0 0 0 2 -1 2 -1 0 -1 -1 -1 -1
0 0 1 -0 -1 -1 -0 1 1 1 1 0 -0 1 -0 -0 -1 1 0 -1 0 -0 -2 -2 -1 -3 -2 -2 0 1 2 1 3 0 1 3 -5 0 -1 -0 -1 -0 -0 -1 -1
0 -0 0 0 1 0 -0 -0 -0 -0 0 -0 1 -0 1 -0 -1 -0 -1 0 0 -1 -1 -0 -0 -2 -0 1 2 -0 1 -0 -3 -0 1 6 -5 0 -0 -0 -0 0 -1 -1 -0
0 0 1 1 0 0 -2 -0 1 1 -0 1 1 3 -0 -1 -1 -1 1 -0 -0 0 1 0 -2 0 -2 -1 3 0 -1 -2 0 0 1 -1 -8 -5 0 2 -3 -1 -1 -1 -2
-0 -1 -1 -1 -1 0 2 0 1 -1 2 -1 -0 -1 -2 -0 1 1 -1 -2 -1 -2 -0 -2 -1 1 1 1 0 1 2 1 -4 -1 6 -1 -2 -5 -3 4 1 -0 -1 -0 -1
1 1 0 -0 -0 1 1 -0 -1 -1 0 -1 -0 -0 -1 0 1 -0 -1 1 -2 0 -1 3 0 0 -0 0 1 1 1 -2 -4 -0 8 -2 -10 -3 -0 -4 -1 -0 -1 -1 3
0 -0 -0 -1 -0 1 -1 -0 -0 0 0 -0 -0 -0 -0 -0 -0 -1 -1 -1 -1 -1 -0 1 4 -0 1 0 1 -1 1 -0 5 -4 1 4 -1 -1 1 0 0 -0 0 1 1
-2 -2 -1 -2 -0 -0 -1 -1 -1 -1 3 3 0 0 -0 -0 1 -1 -2 -1 0 1 -0 1 1 0 0 0 2 1 0 1 1 2 3 3 -4 -0 -0 -1 1 -0 -1 -0 -0
-0 -1 -2 -2 -1 -1 -0 -1 -1 -1 1 3 -0 -1 -1 -1 -2 0 -1 -1 -0 -0 4 3 1 1 1 -1 1 2 1 2 1 1 3 3 6 -0 0 -1 -3 -2 -0 0 -1
-0 -1 -2 -1 0 -1 -0 1 -0 6 -4 1 -0 0 0 -1 -0 -1 0 -1 -1 0 1 0 -1 1 1 -0 -0 0 2 1 1 1 3 2 4 -11 -0 -1 -1 -0 1 1 -0
-2 -3 -2 -1 -1 -1 -1 -1 4 2 1 1 0 -1 0 -1 -1 -1 -0 0 2 3 1 1 0 0 0 2 2 1 1 -1 1 3 2 0 3 -13 -2 -1 0 -1 1 0 -0
-0 0 -2 -3 -2 -1 -0 4 3 1 -1 1 0 0 1 1 0 -1 0 1 1 1 0 1 1 1 1 2 2 1 3 3 2 1 -2 1 -3 -6 0 -1 -0 -1 -0 -1 0
-2 -1 -1 -1 -1 -2 -1 1 -1 -1 -0 0 1 1 -0 1 2 1 0 -0 -1 -2 2 1 -1 2 -0 0 3 4 3 3 2 1 5 -3 -3 -7 -0 -2 1 -1 0 0 1
-2 -1 -1 -1 -1 -2 2 -1 0 -0 -0 1 1 1 0 -0 2 2 0 -1 -0 -1 -0 -0 1 1 2 1 2 4 1 6 2 1 -2 -7 -4 -8 -1 -1 -0 1 -1 0 -1
-4 1 0 -0 -1 0 1 -1 -0 -0 1 2 0 1 -1 0 0 -1 -3 -1 0 2 0 -1 5 4 2 0 -4 5 2 3 4 1 2 -1 -8 -1 0 0 0 -1 -1 -0 0
-2 0 -2 -2 3 -1 0 0 0 -0 -0 0 1 1 0 0 0 1 -0 0 -1 -3 -0 -1 -0 0 -6 2 0 0 -1 -3 3 -2 -1 4 -23 -0 -0 -0 0 -1 -2 0 2
-2 -3 -2 -2 2 0 -0 -0 -0 1 -1 0 -0 1 0 0 2 1 -0 0 1 -0 -2 -3 -0 -0 3 7 1 1 -1 -1 1 0 -5 6 -17 1 0 -0 -1 -1 -1 -1 -3
-0 1 -1 -1 -2 -0 0 -1 -0 -0 -1 -0 -0 1 2 1 0 -1 -0 0 -1 -1 -0 1 0 2 -3 -6 3 1 1 -0 -0 2 -6 -11 -14 -14 -8 -1 -3 -0 -0 1 3
-1 0 1 -1 -1 0 1 1 -0 -0 0 -0 2 1 -3 1 0 -1 0 -1 2 1 0 -2 1 5 -5 -2 4 1 1 -2 4 -12 8 -23 4 -9 -3 2 0 -1 5 5 3
1 1 -2 -1 -1 1 0 -4 2 -6 3 -2 3 -1 1 1 -2 0 1 1 -1 3 -0 1 -2 1 -3 -2 3 2 -2 1 -0 -3 2 4 -13 0 -4 -0 -3 0 2 4 5
1 -2 -1 -2 0 3 -3 -5 -2 0 -3 1 -2 1 1 -6 2 -6 4 -0 -0 -2 -1 -1 0 2 -6 0 -0 0 -7 -2 -0 0 -1 2 -4 0 -7 -2 1 1 1 3 1
Height
1537 1536 1536 1537 1538 1538 1538 1539 1539 1540 1541 1541 1541 1541 1540 1539 1538 1537 1535 1535 1532 1530 1529 1529 1528 1527 1527 1528 1528 1529 1527 1529 1532 1535 1534 1539 1539 1541 1540 1540 1540 1539 1539 1539 1538
1538 1536 1536 1537 1538 1539 1539 1540 1540 1540 1541 1542 1542 1541 1539 1538 1538 1537 1537 1535 1533 1531 1530 1529 1529 1528 1529 1530 1531 1530 1528 1533 1537 1537 1537 1539 1539 1539 1540 1539 1539 1538 1537 1537 1537
1539 1538 1538 1539 1539 1540 1540 1541 1541 1541 1542 1542 1542 1541 1539 1538 1539 1539 1537 1535 1533 1531 1530 1529 1528 1528 1530 1531 1534 1534 1533 1538 1539 1540 1540 1539 1539 1539 1537 1534 1534 1535 1536 1536 1537
1541 1541 1540 1540 1540 1541 1541 1541 1542 1542 1543 1543 1542 1541 1540 1539 1541 1539 1537 1535 1533 1531 1530 1529 1529 1529 1531 1531 1535 1535 1540 1541 1541 1540 1540 1539 1539 1537 1536 1534 1534 1534 1535 1535 1535
1544 1543 1543 1542 1542 1542 1542 1543 1543 1543 1543 1543 1542 1541 1541 1541 1542 1539 1537 1536 1535 1532 1531 1530 1529 1530 1530 1533 1534 1533 1538 1539 1540 1540 1539 1538 1536 1536 1533 1533 1533 1533 1534 1534 1535
1546 1545 1544 1544 1544 1544 1544 1544 1544 1544 1544 1544 1543 1542 1541 1542 1541 1539 1538 1537 1536 1534 1532 1531 1531 1530 1533 1535 1534 1537 1537 1537 1537 1537 1537 1536 1534 1535 1529 1529 1530 1532 1533 1533 1533
1548 1546 1545 1545 1545 1545 1545 1545 1545 1545 1545 1544 1543 1543 1542 1545 1541 1540 1539 1538 1536 1535 1534 1533 1532 1533 1534 1536 1538 1538 1535 1536 1536 1535 1535 1535 1528 1527 1525 1525 1527 1527 1529 1529 1530
1549 1548 1547 1546 1546 1546 1546 1546 1546 1545 1544 1544 1543 1543 1543 1543 1542 1540 1539 1538 1537 1536 1535 1534 1534 1533 1536 1538 1538 1536 1535 1529 1533 1535 1535 1535 1516 1520 1523 1524 1524 1524 1525 1526 1527
1551 1549 1548 1547 1546 1547 1547 1546 1546 1544 1544 1544 1544 1543 1544 1543 1542 1540 1539 1538 1537 1536 1536 1535 1535 1536 1538 1534 1532 1533 1528 1534 1530 1534 1533 1532 1515 1517 1519 1520 1520 1521 1522 1523 1524
1552 1550 1549 1547 1546 1546 1546 1546 1545 1544 1543 1543 1543 1546 1545 1544 1542 1540 1538 1537 1537 1536 1536 1535 1536 1535 1536 1528 1531 1536 1534 1532 1533 1531 1530 1524 1512 1510 1512 1513 1513 1514 1515 1515 1517
1553 1551 1549 1547 1546 1545 1545 1545 1547 1546 1543 1543 1544 1543 1543 1543 1542 1540 1538 1538 1537 1537 1536 1537 1535 1537 1541 1542 1542 1542 1540 1536 1527 1531 1530 1514 1507 1503 1506 1507 1507 1507 1508 1509 1511
1553 1551 1548 1546 1545 1544 1543 1543 1543 1544 1545 1544 1544 1543 1543 1542 1541 1540 1539 1539 1537 1537 1539 1537 1537 1543 1545 1545 1543 1541 1537 1526 1525 1532 1531 1512 1503 1496 1500 1501 1502 1503 1504 1505 1509
1553 1551 1548 1545 1544 1543 1542 1543 1543 1543 1544 1545 1544 1544 1544 1543 1542 1541 1539 1539 1539 1538 1540 1536 1542 1544 1545 1543 1541 1533 1534 1531 1536 1529 1527 1522 1491 1492 1498 1500 1500 1499 1500 1502 1504
1554 1551 1548 1545 1546 1543 1542 1542 1543 1543 1542 1546 1545 1545 1544 1543 1543 1541 1540 1541 1540 1539 1541 1539 1543 1543 1543 1541 1542 1534 1537 1539 1536 1531 1515 1524 1494 1486 1492 1493 1495 1495 1496 1498 1500
1554 1551 1549 1546 1545 1544 1544 1543 1543 1543 1553 1548 1545 1544 1542 1544 1543 1541 1540 1539 1539 1540 1543 1537 1540 1541 1540 1537 1541 1533 1539 1537 1536 1531 1531 1518 1515 1474 1495 1488 1487 1490 1493 1497 1499
1554 1552 1549 1547 1546 1545 1543 1543 1544 1545 1559 1544 1544 1544 1543 1542 1542 1540 1539 1540 1540 1540 1541 1539 1542 1541 1537 1539 1540 1538 1535 1535 1535 1530 1523 1517 1517 1482 1482 1485 1486 1488 1491 1494 1495
1555 1552 1550 1548 1547 1545 1545 1545 1545 1545 1548 1546 1545 1545 1545 1542 1540 1541 1540 1538 1536 1536 1534 1537 1538 1539 1539 1537 1538 1535 1528 1518 1517 1516 1503 1525 1522 1484 1482 1486 1487 1487 1489 1491 1493
1555 1552 1549 1548 1547 1546 1545 1544 1548 1547 1544 1547 1547 1545 1543 1543 1541 1541 1540 1534 1540 1538 1536 1534 1530 1535 1537 1535 1534 1536 1534 1527 1530 1514 1503 1525 1509 1482 1487 1488 1489 1489 1490 1489 1490
1554 1551 1549 1548 1547 1546 1546 1545 1540 1543 1545 1545 1544 1542 1540 1542 1543 1539 1536 1532 1532 1535 1530 1532 1528 1535 1537 1537 1538 1537 1533 1538 1530 1533 1525 1496 1498 1487 1484 1484 1486 1488 1488 1488 1488
1553 1550 1548 1547 1546 1546 1545 1545 1543 1545 1546 1546 1542 1541 1538 1538 1540 1538 1531 1530 1531 1534 1535 1532 1531 1533 1538 1539 1540 1536 1538 1535 1536 1526 1507 1480 1477 1481 1476 1479 1481 1482 1484 1486 1485
1552 1549 1547 1546 1545 1544 1543 1544 1544 1544 1545 1545 1541 1540 1537 1537 1539 1534 1527 1529 1530 1534 1536 1535 1535 1531 1538 1532 1525 1536 1533 1536 1536 1530 1517 1500 1474 1473 1476 1478 1479 1479 1482 1483 1484
1551 1550 1546 1545 1547 1547 1544 1546 1546 1544 1545 1545 1544 1541 1538 1538 1536 1534 1528 1525 1529 1531 1532 1533 1532 1526 1517 1527 1527 1525 1519 1522 1519 1515 1529 1514 1481 1469 1476 1479 1480 1479 1480 1481 1482
1552 1549 1545 1545 1542 1543 1545 1545 1544 1543 1543 1544 1542 1541 1541 1538 1536 1530 1529 1528 1528 1529 1530 1533 1530 1524 1511 1527 1531 1526 1521 1518 1520 1527 1516 1512 1476 1471 1474 1476 1476 1475 1476 1476 1476
1554 1550 1545 1543 1544 1545 1545 1542 1542 1541 1540 1540 1539 1540 1539 1536 1534 1529 1528 1527 1528 1529 1531 1532 1528 1521 1518 1507 1512 1527 1520 1517 1515 1520 1498 1487 1473 1463 1467 1469 1470 1471 1470 1468 1469
1554 1550 1548 1543 1541 1544 1545 1542 1537 1538 1538 1537 1535 1534 1532 1530 1530 1529 1527 1527 1528 1527 1531 1533 1532 1524 1516 1510 1507 1503 1504 1501 1506 1498 1504 1473 1471 1469 1464 1463 1465 1466 1466 1469 1471
1552 1550 1549 1546 1544 1544 1542 1535 1534 1532 1533 1531 1533 1527 1530 1528 1522 1521 1522 1524 1521 1527 1528 1530 1526 1526 1516 1508 1505 1496 1495 1488 1484 1484 1485 1475 1467 1466 1467 1467 1465 1466 1467 1469 1471
1547 1546 1547 1543 1543 1542 1536 1533 1531 1532 1528 1527 1528 1530 1529 1525 1523 1521 1518 1516 1514 1515 1522 1527 1525 1520 1500 1497 1501 1488 1468 1472 1475 1475 1475 1473 1467 1473 1468 1468 1469 1469 1470 1471 1471